Regional Weather Roundup
Issued by NWS

Home | Current Version | Previous Version | Graphics & Text | Print | Product List | Glossary On
Versions: 1 2 3 4 5 6 7 8 9 10 11 12 13 14 15 16 17 18 19 20 21 22 23 24 25 26 27 28 29 30 31 32 33 34 35 36 37 38 39 40 41 42 43 44 45 46 47 48 49 50
000
ASUS43 KBIS 250010
RWRND

NORTH DAKOTA REGIONAL WEATHER ROUNDUP
NATIONAL WEATHER SERVICE BISMARCK ND
700 PM CDT TUE MAY 24 2016

NOTE: "FAIR" INDICATES FEW OR NO CLOUDS BELOW 12,000 FEET WITH NO
SIGNIFICANT WEATHER AND/OR OBSTRUCTIONS TO VISIBILITY.


NDZ001>003-009>011-017-250100-
NORTHWEST NORTH DAKOTA

CITY           SKY/WX    TMP DP  RH WIND       PRES   REMARKS
WILLISTON      MOSUNNY   71  37  28 W7        29.85F
6HR MIN TEMP:  63; 6HR MAX TEMP:  72;

MINOT          SUNNY     76  39  26 S6        29.85F
$$

NDZ018>021-031>035-040>046-250100-
SOUTHWEST NORTH DAKOTA

CITY           SKY/WX    TMP DP  RH WIND       PRES   REMARKS
BISMARCK       SUNNY     77  43  29 S12       29.84F
6HR MIN TEMP:  72; 6HR MAX TEMP:  79;

DICKINSON      CLOUDY    65  42  43 NE9       29.83F
GARRISON         N/A     74  45  35 W3        29.85F
6HR MIN TEMP:  68; 6HR MAX TEMP:  75;

HETTINGER ARPT CLOUDY    71  44  37 E13       29.81F
$$

NDZ004>008-012>016-024-026-027-054-250100-
NORTHEAST NORTH DAKOTA

CITY           SKY/WX    TMP DP  RH WIND       PRES   REMARKS
GRAND FORKS    MOSUNNY   79  48  33 N3        29.85F
DEVILS LAKE    SUNNY     76  42  29 SE6       29.87
$$

NDZ022-023-025-028>030-036>039-047>053-250100-
SOUTHEAST NORTH DAKOTA

CITY           SKY/WX    TMP DP  RH WIND       PRES   REMARKS
FARGO          SUNNY     83  40  21 N9        29.84S
6HR MIN TEMP:  79; 6HR MAX TEMP:  85;

$$





USA.gov is the U.S. government's official web portal to all federal, state and local government web resources and services.